Time,TemperatureF,DewpointF,PressureIn,WindDirection,WindDirectionDegrees,WindSpeedMPH,WindSpeedGustMPH,Humidity,HourlyPrecipIn,Conditions,Clouds,dailyrainin,SoftwareType,DateUTC
2013-05-29 00:01:00,40.0,21.0,-100.00,SW,234,6.0,6.0,46,-99.99,,,-99.99,,2013-05-29 06:01:00,
2013-05-29 00:12:00,39.0,24.0,-100.00,SW,234,6.0,6.0,56,-99.99,,,-99.99,,2013-05-29 06:12:00,
2013-05-29 00:21:00,39.0,24.0,-100.00,SW,234,6.0,6.0,56,-99.99,,,-99.99,,2013-05-29 06:21:00,
2013-05-29 00:31:00,40.0,23.0,-100.00,SW,234,6.0,6.0,50,-99.99,,,-99.99,,2013-05-29 06:31:00,
2013-05-29 00:42:00,39.0,25.0,-100.00,SW,234,6.0,7.0,56,-99.99,,,-99.99,,2013-05-29 06:42:00,
2013-05-29 00:51:00,39.0,25.0,-100.00,SW,234,6.0,7.0,57,-99.99,,,-99.99,,2013-05-29 06:51:00,
2013-05-29 01:01:00,36.0,26.0,-100.00,SW,234,6.0,7.0,68,-99.99,,,-99.99,,2013-05-29 07:01:00,
2013-05-29 01:11:00,34.0,28.0,-100.00,SW,234,-999.0,7.0,80,-99.99,,,-99.99,,2013-05-29 07:11:00,
2013-05-29 01:21:00,34.0,28.0,-100.00,SW,234,-999.0,7.0,81,-99.99,,,-99.99,,2013-05-29 07:21:00,
2013-05-29 01:34:00,33.0,29.0,-100.00,SW,234,-999.0,7.0,85,-99.99,,,-99.99,,2013-05-29 07:34:00,
2013-05-29 01:42:00,32.0,29.0,-100.00,SW,234,-999.0,-999.0,89,-99.99,,,-99.99,,2013-05-29 07:42:00,
2013-05-29 01:52:00,32.0,29.0,-100.00,SW,234,-999.0,-999.0,89,-99.99,,,-99.99,,2013-05-29 07:52:00,
2013-05-29 02:02:00,32.0,30.0,-100.00,SW,234,-999.0,-999.0,94,-99.99,,,-99.99,,2013-05-29 08:02:00,
2013-05-29 02:11:00,31.0,28.0,-100.00,SW,234,-999.0,-999.0,90,-99.99,,,-99.99,,2013-05-29 08:11:00,
2013-05-29 02:21:00,30.0,27.0,-100.00,SW,234,-999.0,-999.0,89,-99.99,,,-99.99,,2013-05-29 08:21:00,
2013-05-29 02:32:00,30.0,29.0,-100.00,SW,234,-999.0,-999.0,96,-99.99,,,-99.99,,2013-05-29 08:32:00,
2013-05-29 02:42:00,29.0,27.0,-100.00,SW,234,-999.0,-999.0,94,-99.99,,,-99.99,,2013-05-29 08:42:00,
2013-05-29 02:51:00,29.0,27.0,-100.00,SW,234,-999.0,-999.0,94,-99.99,,,-99.99,,2013-05-29 08:51:00,
2013-05-29 03:01:00,29.0,28.0,-100.00,SW,234,-999.0,-999.0,97,-99.99,,,-99.99,,2013-05-29 09:01:00,
2013-05-29 03:11:00,28.0,27.0,-100.00,SW,234,-999.0,-999.0,97,-99.99,,,-99.99,,2013-05-29 09:11:00,
2013-05-29 03:21:00,28.0,27.0,-100.00,SW,234,-999.0,-999.0,98,-99.99,,,-99.99,,2013-05-29 09:21:00,
2013-05-29 03:33:00,28.0,27.0,-100.00,SW,234,-999.0,-999.0,97,-99.99,,,-99.99,,2013-05-29 09:33:00,
2013-05-29 03:42:00,28.0,27.0,-100.00,SW,234,-999.0,-999.0,97,-99.99,,,-99.99,,2013-05-29 09:42:00,
2013-05-29 03:52:00,28.0,27.0,-100.00,SW,234,-999.0,-999.0,97,-99.99,,,-99.99,,2013-05-29 09:52:00,
2013-05-29 04:03:00,29.0,28.0,-100.00,SW,234,-999.0,6.0,96,-99.99,,,-99.99,,2013-05-29 10:03:00,
2013-05-29 04:12:00,29.0,28.0,-100.00,SW,234,-999.0,4.0,96,-99.99,,,-99.99,,2013-05-29 10:12:00,
2013-05-29 04:22:00,30.0,29.0,-100.00,SW,234,-999.0,4.0,96,-99.99,,,-99.99,,2013-05-29 10:22:00,
2013-05-29 04:32:00,30.0,29.0,-100.00,SW,234,-999.0,3.0,96,-99.99,,,-99.99,,2013-05-29 10:32:00,
2013-05-29 04:42:00,31.0,29.0,-100.00,SW,234,-999.0,3.0,94,-99.99,,,-99.99,,2013-05-29 10:42:00,
2013-05-29 04:52:00,31.0,29.0,-100.00,SW,234,-999.0,3.0,94,-99.99,,,-99.99,,2013-05-29 10:52:00,
2013-05-29 05:02:00,29.0,28.0,-100.00,SW,234,-999.0,3.0,96,-99.99,,,-99.99,,2013-05-29 11:02:00,
2013-05-29 05:12:00,29.0,28.0,-100.00,SW,234,-999.0,3.0,96,-99.99,,,-99.99,,2013-05-29 11:12:00,
2013-05-29 05:22:00,29.0,28.0,-100.00,SW,234,-999.0,3.0,97,-99.99,,,-99.99,,2013-05-29 11:22:00,
2013-05-29 05:32:00,29.0,29.0,-100.00,SW,234,-999.0,-999.0,98,-99.99,,,-99.99,,2013-05-29 11:32:00,
2013-05-29 05:42:00,30.0,29.0,-100.00,SW,234,-999.0,-999.0,98,-99.99,,,-99.99,,2013-05-29 11:42:00,
2013-05-29 05:52:00,30.0,30.0,-100.00,SW,234,-999.0,-999.0,98,-99.99,,,-99.99,,2013-05-29 11:52:00,
2013-05-29 06:01:00,31.0,31.0,-100.00,SW,234,-999.0,-999.0,100,-99.99,,,-99.99,,2013-05-29 12:01:00,
2013-05-29 06:11:00,32.0,32.0,-100.00,SW,234,-999.0,-999.0,100,-99.99,,,-99.99,,2013-05-29 12:11:00,
2013-05-29 06:21:00,32.0,32.0,-100.00,SW,234,-999.0,-999.0,100,-99.99,,,-99.99,,2013-05-29 12:21:00,
2013-05-29 06:32:00,32.0,32.0,-100.00,SW,234,-999.0,-999.0,100,-99.99,,,-99.99,,2013-05-29 12:32:00,
2013-05-29 06:42:00,32.0,32.0,-100.00,SW,234,-999.0,-999.0,100,-99.99,,,-99.99,,2013-05-29 12:42:00,
2013-05-29 06:51:00,32.0,32.0,-100.00,SW,234,-999.0,-999.0,100,-99.99,,,-99.99,,2013-05-29 12:51:00,
2013-05-29 07:02:00,32.0,32.0,-100.00,West,274,0.0,-999.0,100,-99.99,,,-99.99,,2013-05-29 13:02:00,
2013-05-29 07:11:00,30.0,29.0,-100.00,West,274,0.0,8.0,97,-99.99,,,-99.99,,2013-05-29 13:11:00,
2013-05-29 07:21:00,30.0,29.0,-100.00,West,274,0.0,8.0,96,-99.99,,,-99.99,,2013-05-29 13:21:00,
2013-05-29 07:32:00,31.0,29.0,-100.00,WSW,251,3.0,10.0,92,-99.99,,,-99.99,,2013-05-29 13:32:00,
2013-05-29 07:42:00,30.0,27.0,-100.00,WSW,251,3.0,15.0,90,-99.99,,,-99.99,,2013-05-29 13:42:00,
2013-05-29 07:52:00,30.0,27.0,-100.00,WSW,251,3.0,15.0,90,-99.99,,,-99.99,,2013-05-29 13:52:00,
2013-05-29 08:02:00,29.0,29.0,-100.00,SSW,199,3.0,10.0,100,-99.99,,,-99.99,,2013-05-29 14:02:00,
2013-05-29 08:11:00,29.0,28.0,-100.00,West,268,6.0,11.0,96,-99.99,,,-99.99,,2013-05-29 14:11:00,
2013-05-29 08:21:00,29.0,28.0,-100.00,West,279,9.0,11.0,96,-99.99,,,-99.99,,2013-05-29 14:21:00,
2013-05-29 08:32:00,30.0,26.0,-100.00,West,279,9.0,16.0,87,-99.99,,,-99.99,,2013-05-29 14:32:00,
2013-05-29 08:41:00,31.0,26.0,-100.00,WNW,291,6.0,13.0,83,-99.99,,,-99.99,,2013-05-29 14:41:00,
2013-05-29 08:52:00,31.0,26.0,-100.00,WSW,245,7.0,13.0,82,-99.99,,,-99.99,,2013-05-29 14:52:00,
2013-05-29 09:01:00,34.0,28.0,-100.00,WSW,251,8.0,16.0,79,-99.99,,,-99.99,,2013-05-29 15:01:00,
2013-05-29 09:11:00,36.0,27.0,-100.00,WSW,239,10.0,16.0,71,-99.99,,,-99.99,,2013-05-29 15:11:00,
2013-05-29 09:21:00,36.0,27.0,-100.00,South,171,7.0,16.0,72,-99.99,,,-99.99,,2013-05-29 15:21:00,
2013-05-29 09:33:00,37.0,27.0,-100.00,SW,234,9.0,15.0,67,-99.99,,,-99.99,,2013-05-29 15:33:00,
2013-05-29 09:42:00,37.0,27.0,-100.00,West,274,9.0,16.0,71,-99.99,,,-99.99,,2013-05-29 15:42:00,
2013-05-29 09:53:00,37.0,28.0,-100.00,West,268,10.0,16.0,71,-99.99,,,-99.99,,2013-05-29 15:53:00,
2013-05-29 10:03:00,37.0,28.0,-100.00,WSW,245,11.0,22.0,71,-99.99,,,-99.99,,2013-05-29 16:03:00,
2013-05-29 10:12:00,38.0,27.0,-100.00,West,268,9.0,17.0,68,-99.99,,,-99.99,,2013-05-29 16:12:00,
2013-05-29 10:22:00,37.0,26.0,-100.00,WSW,251,12.0,17.0,66,-99.99,,,-99.99,,2013-05-29 16:22:00,
2013-05-29 10:32:00,38.0,26.0,-100.00,West,268,10.0,23.0,63,-99.99,,,-99.99,,2013-05-29 16:32:00,
2013-05-29 10:42:00,34.0,30.0,-100.00,WSW,251,9.0,18.0,74,-99.99,,,-99.99,,2013-05-29 16:42:00,
2013-05-29 10:52:00,34.0,25.0,-100.00,West,268,9.0,18.0,71,-99.99,,,-99.99,,2013-05-29 16:52:00,
2013-05-29 11:02:00,35.0,26.0,-100.00,WSW,251,10.0,18.0,71,-99.99,,,-99.99,,2013-05-29 17:02:00,
2013-05-29 11:12:00,35.0,26.0,-100.00,West,268,8.0,18.0,71,-99.99,,,-99.99,,2013-05-29 17:12:00,
2013-05-29 11:22:00,37.0,24.0,-100.00,WSW,239,12.0,19.0,60,-99.99,,,-99.99,,2013-05-29 17:22:00,
2013-05-29 11:32:00,37.0,24.0,-100.00,WSW,239,12.0,19.0,60,-99.99,,,-99.99,,2013-05-29 17:32:00,
2013-05-29 11:42:00,40.0,26.0,-100.00,WNW,291,10.0,16.0,59,-99.99,,,-99.99,,2013-05-29 17:42:00,
2013-05-29 11:52:00,40.0,27.0,-100.00,West,268,9.0,16.0,59,-99.99,,,-99.99,,2013-05-29 17:52:00,
2013-05-29 12:01:00,40.0,28.0,-100.00,WSW,245,8.0,15.0,63,-99.99,,,-99.99,,2013-05-29 18:01:00,
2013-05-29 12:13:00,36.0,29.0,-100.00,WSW,245,8.0,17.0,76,-99.99,,,-99.99,,2013-05-29 18:13:00,
2013-05-29 12:22:00,36.0,30.0,-100.00,West,274,10.0,17.0,81,-99.99,,,-99.99,,2013-05-29 18:22:00,
2013-05-29 12:32:00,38.0,28.0,-100.00,West,274,10.0,15.0,68,-99.99,,,-99.99,,2013-05-29 18:32:00,
2013-05-29 12:42:00,34.0,30.0,-100.00,WSW,256,11.0,18.0,87,-99.99,,,-99.99,,2013-05-29 18:42:00,
2013-05-29 12:51:00,33.0,30.0,-100.00,WNW,296,10.0,18.0,85,-99.99,,,-99.99,,2013-05-29 18:51:00,
2013-05-29 13:02:00,35.0,28.0,-100.00,West,268,10.0,21.0,76,-99.99,,,-99.99,,2013-05-29 19:02:00,
2013-05-29 13:11:00,38.0,29.0,-100.00,West,268,10.0,18.0,71,-99.99,,,-99.99,,2013-05-29 19:11:00,
2013-05-29 13:21:00,39.0,29.0,-100.00,SW,222,11.0,18.0,67,-99.99,,,-99.99,,2013-05-29 19:21:00,
2013-05-29 13:32:00,39.0,28.0,-100.00,West,262,8.0,19.0,66,-99.99,,,-99.99,,2013-05-29 19:32:00,
2013-05-29 13:44:00,38.0,28.0,-100.00,WNW,296,9.0,19.0,68,-99.99,,,-99.99,,2013-05-29 19:44:00,
2013-05-29 13:52:00,38.0,27.0,-100.00,West,274,7.0,19.0,66,-99.99,,,-99.99,,2013-05-29 19:52:00,
2013-05-29 14:02:00,39.0,26.0,-100.00,West,274,9.0,19.0,61,-99.99,,,-99.99,,2013-05-29 20:02:00,
2013-05-29 14:11:00,40.0,26.0,-100.00,WSW,239,13.0,22.0,58,-99.99,,,-99.99,,2013-05-29 20:11:00,
2013-05-29 14:22:00,40.0,27.0,-100.00,South,177,7.0,22.0,60,-99.99,,,-99.99,,2013-05-29 20:22:00,
2013-05-29 14:33:00,45.0,28.0,-100.00,South,177,7.0,22.0,51,-99.99,,,-99.99,,2013-05-29 20:33:00,
2013-05-29 14:42:00,41.0,26.0,-100.00,South,177,7.0,10.0,55,-99.99,,,-99.99,,2013-05-29 20:42:00,
2013-05-29 14:52:00,39.0,24.0,-100.00,NE,40,2.0,10.0,56,-99.99,,,-99.99,,2013-05-29 20:52:00,
2013-05-29 15:02:00,41.0,26.0,-100.00,NE,40,2.0,12.0,55,-99.99,,,-99.99,,2013-05-29 21:02:00,
2013-05-29 15:12:00,36.0,28.0,-100.00,SW,228,4.0,12.0,72,-99.99,,,-99.99,,2013-05-29 21:12:00,
2013-05-29 15:22:00,36.0,28.0,-100.00,SW,228,4.0,12.0,73,-99.99,,,-99.99,,2013-05-29 21:22:00,
2013-05-29 15:33:00,37.0,27.0,-100.00,SW,228,4.0,15.0,68,-99.99,,,-99.99,,2013-05-29 21:33:00,
2013-05-29 15:43:00,36.0,28.0,-100.00,South,182,2.0,12.0,75,-99.99,,,-99.99,,2013-05-29 21:43:00,
2013-05-29 15:53:00,36.0,29.0,-100.00,South,182,2.0,12.0,78,-99.99,,,-99.99,,2013-05-29 21:53:00,
2013-05-29 16:03:00,30.0,29.0,-100.00,South,182,2.0,12.0,98,-99.99,,,-99.99,,2013-05-29 22:03:00,
2013-05-29 16:12:00,34.0,34.0,-100.00,South,182,2.0,6.0,100,-99.99,,,-99.99,,2013-05-29 22:12:00,
2013-05-29 16:23:00,34.0,34.0,-100.00,South,182,2.0,6.0,100,-99.99,,,-99.99,,2013-05-29 22:23:00,
2013-05-29 16:33:00,36.0,30.0,-100.00,West,274,2.0,17.0,80,-99.99,,,-99.99,,2013-05-29 22:33:00,
2013-05-29 16:42:00,37.0,29.0,-100.00,SW,228,7.0,14.0,74,-99.99,,,-99.99,,2013-05-29 22:42:00,
2013-05-29 16:53:00,37.0,30.0,-100.00,SW,234,10.0,14.0,76,-99.99,,,-99.99,,2013-05-29 22:53:00,
2013-05-29 17:02:00,37.0,28.0,-100.00,SW,234,10.0,21.0,72,-99.99,,,-99.99,,2013-05-29 23:02:00,
2013-05-29 17:12:00,38.0,27.0,-100.00,WNW,296,10.0,18.0,65,-99.99,,,-99.99,,2013-05-29 23:12:00,
2013-05-29 17:21:00,38.0,27.0,-100.00,SSW,211,10.0,18.0,65,-99.99,,,-99.99,,2013-05-29 23:21:00,
2013-05-29 17:33:00,36.0,27.0,-100.00,SW,217,9.0,22.0,71,-99.99,,,-99.99,,2013-05-29 23:33:00,
2013-05-29 17:42:00,34.0,28.0,-100.00,WSW,245,8.0,16.0,79,-99.99,,,-99.99,,2013-05-29 23:42:00,
2013-05-29 17:52:00,34.0,27.0,-100.00,WSW,245,8.0,16.0,78,-99.99,,,-99.99,,2013-05-29 23:52:00,
2013-05-29 18:01:00,34.0,29.0,-100.00,WSW,245,8.0,16.0,82,-99.99,,,-99.99,,2013-05-30 00:01:00,
2013-05-29 18:11:00,29.0,28.0,-100.00,SSW,211,4.0,13.0,97,-99.99,,,-99.99,,2013-05-30 00:11:00,
2013-05-29 18:21:00,29.0,28.0,-100.00,West,262,7.0,13.0,97,-99.99,,,-99.99,,2013-05-30 00:21:00,
2013-05-29 18:31:00,29.0,28.0,-100.00,South,171,8.0,23.0,100,-99.99,,,-99.99,,2013-05-30 00:31:00,
2013-05-29 18:42:00,31.0,27.0,-100.00,WNW,291,14.0,24.0,87,-99.99,,,-99.99,,2013-05-30 00:42:00,
2013-05-29 18:52:00,31.0,27.0,-100.00,West,279,12.0,24.0,85,-99.99,,,-99.99,,2013-05-30 00:52:00,
2013-05-29 19:01:00,34.0,25.0,-100.00,WSW,245,12.0,26.0,75,-99.99,,,-99.99,,2013-05-30 01:01:00,
2013-05-29 19:11:00,33.0,25.0,-100.00,West,262,14.0,24.0,75,-99.99,,,-99.99,,2013-05-30 01:11:00,
2013-05-29 19:21:00,32.0,25.0,-100.00,WSW,245,19.0,24.0,75,-99.99,,,-99.99,,2013-05-30 01:21:00,
2013-05-29 19:32:00,32.0,25.0,-100.00,WSW,245,19.0,24.0,75,-99.99,,,-99.99,,2013-05-30 01:32:00,
2013-05-29 19:41:00,32.0,24.0,-100.00,West,279,17.0,31.0,74,-99.99,,,-99.99,,2013-05-30 01:41:00,
2013-05-29 19:52:00,32.0,24.0,-100.00,WSW,251,19.0,31.0,73,-99.99,,,-99.99,,2013-05-30 01:52:00,
2013-05-29 20:01:00,32.0,24.0,-100.00,SSW,205,14.0,27.0,74,-99.99,,,-99.99,,2013-05-30 02:01:00,
2013-05-29 20:11:00,32.0,24.0,-100.00,WSW,251,17.0,34.0,74,-99.99,,,-99.99,,2013-05-30 02:11:00,
2013-05-29 20:21:00,32.0,25.0,-100.00,WNW,291,19.0,34.0,75,-99.99,,,-99.99,,2013-05-30 02:21:00,
2013-05-29 20:32:00,32.0,23.0,-100.00,WSW,256,18.0,31.0,71,-99.99,,,-99.99,,2013-05-30 02:32:00,
2013-05-29 20:42:00,32.0,23.0,-100.00,WSW,256,18.0,31.0,71,-99.99,,,-99.99,,2013-05-30 02:42:00,
2013-05-29 20:52:00,32.0,23.0,-100.00,WSW,256,18.0,31.0,71,-99.99,,,-99.99,,2013-05-30 02:52:00,
2013-05-29 21:02:00,31.0,24.0,-100.00,WSW,256,22.0,26.0,76,-99.99,,,-99.99,,2013-05-30 03:02:00,
2013-05-29 21:11:00,32.0,25.0,-100.00,SW,222,12.0,30.0,76,-99.99,,,-99.99,,2013-05-30 03:11:00,
2013-05-29 21:21:00,32.0,24.0,-100.00,West,279,13.0,30.0,74,-99.99,,,-99.99,,2013-05-30 03:21:00,
2013-05-29 21:33:00,31.0,24.0,-100.00,West,262,9.0,30.0,75,-99.99,,,-99.99,,2013-05-30 03:33:00,
2013-05-29 21:43:00,31.0,25.0,-100.00,SE,142,13.0,23.0,80,-99.99,,,-99.99,,2013-05-30 03:43:00,
2013-05-29 21:53:00,31.0,25.0,-100.00,SE,142,8.0,23.0,80,-99.99,,,-99.99,,2013-05-30 03:53:00,
2013-05-29 22:02:00,31.0,25.0,-100.00,South,188,9.0,22.0,78,-99.99,,,-99.99,,2013-05-30 04:02:00,
2013-05-29 22:12:00,32.0,24.0,-100.00,West,274,11.0,24.0,74,-99.99,,,-99.99,,2013-05-30 04:12:00,
2013-05-29 22:23:00,32.0,24.0,-100.00,West,274,15.0,24.0,74,-99.99,,,-99.99,,2013-05-30 04:23:00,
2013-05-29 22:33:00,32.0,25.0,-100.00,West,268,12.0,31.0,76,-99.99,,,-99.99,,2013-05-30 04:33:00,
2013-05-29 22:42:00,31.0,25.0,-100.00,SW,234,20.0,20.0,78,-99.99,,,-99.99,,2013-05-30 04:42:00,
2013-05-29 22:53:00,31.0,24.0,-100.00,SW,228,15.0,15.0,78,-99.99,,,-99.99,,2013-05-30 04:53:00,
2013-05-29 23:02:00,32.0,25.0,-100.00,West,274,16.0,26.0,76,-99.99,,,-99.99,,2013-05-30 05:02:00,
2013-05-29 23:12:00,31.0,25.0,-100.00,West,279,14.0,23.0,80,-99.99,,,-99.99,,2013-05-30 05:12:00,
2013-05-29 23:22:00,31.0,25.0,-100.00,SW,228,8.0,23.0,81,-99.99,,,-99.99,,2013-05-30 05:22:00,
2013-05-29 23:32:00,27.0,26.0,-100.00,WSW,239,8.0,21.0,98,-99.99,,,-99.99,,2013-05-30 05:32:00,
2013-05-29 23:42:00,29.0,25.0,-100.00,WSW,239,14.0,28.0,87,-99.99,,,-99.99,,2013-05-30 05:42:00,
2013-05-29 23:52:00,29.0,26.0,-100.00,WNW,285,16.0,28.0,89,-99.99,,,-99.99,,2013-05-30 05:52:00,